Weather History for KPPF - July, 2013

Change the Weather History Date:

Monday, July 1, 2013

  Actual Average Record
Temperature  
Mean Temperature 70 °F -  
Max Temperature 84 °F 88 °F 102 °F (1952)
Min Temperature 59 °F 67 °F 56 °F (1984)
Cooling Degree Days 6    
Growing Degree Days 20 (Base 50)    
Moisture  
Dew Point 54 °F    
Average Humidity 58    
Maximum Humidity 87    
Minimum Humidity 27    
Precipitation  
Precipitation 0.00 in - - ()
Sea Level Pressure  
Sea Level Pressure 30.06 in    
Wind  
Wind Speed 6 mph (North)    
Max Wind Speed 14 mph    
Max Gust Speed 26 mph    
Visibility 10 miles    
Events      
Averages and records for this station are not official NWS values.
T = Trace of Precipitation, MM = Missing Value Source: NWS Daily Summary

Daily Weather History Graph

Daily Weather History Graph

Search for Another Location

Airport or City:

Trip Planner

Search our weather history database for the weather conditions in past years. The results will help you decide how hot, cold, wet, or windy it might be!

Date:

Astronomy

Jul. 01, 2013 Rise Set
Actual Time 6:05 AM CDT 8:46 PM CDT
Civil Twilight 5:34 AM CDT 9:17 PM CDT
Nautical Twilight 4:55 AM CDT 9:55 PM CDT
Astronomical Twilight 4:12 AM CDT 10:39 PM CDT
Moon 1:30 AM CDT (7/1) 3:06 PM CDT (7/1)
Length of Visible Light 15h 43m
Length of Day
14h 41m
Waning Crescent, 35% of the Moon is Illuminated
Jul 1
Waning Crescent
Jul 8
New
Jul 15
First Quarter
Jul 22
Full
Jul 29
Last Quarter

Hourly Weather History & Observations

Time (CDT) Temp. Dew Point Humidity Pressure Visibility Wind Dir Wind Speed Gust Speed Precip Events Conditions
12:52 AM 66.0 °F 55.9 °F 70% 30.01 in 10.0 mi North 4.6 mph - N/A   Clear
1:52 AM 62.1 °F 55.9 °F 80% 30.03 in 10.0 mi North 3.5 mph - N/A   Clear
2:52 AM 61.0 °F 57.0 °F 87% 30.03 in 10.0 mi North 4.6 mph - N/A   Clear
3:52 AM 60.1 °F 55.9 °F 86% 30.03 in 10.0 mi North 3.5 mph - N/A   Partly Cloudy
4:52 AM 61.0 °F 55.9 °F 83% 30.04 in 10.0 mi North 4.6 mph - N/A   Clear
5:52 AM 59.0 °F 55.0 °F 87% 30.05 in 10.0 mi North 3.5 mph - N/A   Clear
6:52 AM 59.0 °F 55.0 °F 87% 30.06 in 10.0 mi North 4.6 mph - N/A   Clear
7:52 AM 66.0 °F 57.0 °F 73% 30.07 in 10.0 mi North 4.6 mph - N/A   Clear
8:52 AM 71.1 °F 57.0 °F 61% 30.08 in 10.0 mi North 8.1 mph - N/A   Clear
9:52 AM 75.0 °F 59.0 °F 57% 30.09 in 10.0 mi North 6.9 mph - N/A   Clear
10:52 AM 78.1 °F 59.0 °F 52% 30.09 in 10.0 mi North 9.2 mph 16.1 mph N/A   Clear
11:52 AM 79.0 °F 57.9 °F 48% 30.09 in 10.0 mi North 9.2 mph - N/A   Scattered Clouds
12:52 PM 79.0 °F 55.9 °F 45% 30.07 in 10.0 mi North 10.4 mph 17.3 mph N/A   Mostly Cloudy
1:52 PM 79.0 °F 52.0 °F 39% 30.07 in 10.0 mi North 11.5 mph 26.5 mph N/A   Scattered Clouds
2:52 PM 82.9 °F 46.0 °F 27% 30.06 in 10.0 mi North 13.8 mph 21.9 mph N/A   Partly Cloudy
3:52 PM 82.0 °F 46.9 °F 29% 30.05 in 10.0 mi NNE 11.5 mph 19.6 mph N/A   Clear
4:52 PM 82.0 °F 46.9 °F 29% 30.04 in 10.0 mi NNE 10.4 mph 17.3 mph N/A   Partly Cloudy
5:52 PM 82.0 °F 46.9 °F 29% 30.05 in 10.0 mi North 10.4 mph 18.4 mph N/A   Clear
6:52 PM 81.0 °F 48.9 °F 33% 30.05 in 10.0 mi North 6.9 mph - N/A   Partly Cloudy
7:52 PM 78.1 °F 48.9 °F 36% 30.05 in 10.0 mi NNE 4.6 mph - N/A   Clear
8:52 PM 70.0 °F 53.1 °F 55% 30.06 in 10.0 mi Calm Calm - N/A   Clear
9:52 PM 68.0 °F 52.0 °F 56% 30.06 in 10.0 mi NNE 3.5 mph - N/A   Clear
10:52 PM 61.0 °F 55.0 °F 81% 30.07 in 10.0 mi Calm Calm - N/A   Clear
11:52 PM 62.1 °F 53.1 °F 72% 30.08 in 10.0 mi Calm Calm - N/A   Clear